Regional Weather Roundup
Issued by NWS

Home | Current Version | Previous Version | Text Only | Print | Product List | Glossary Off
Versions: 1 2 3 4 5 6 7 8 9 10 11 12 13 14 15 16 17 18 19 20 21 22 23 24 25 26 27 28 29 30 31 32 33 34 35 36 37 38 39 40 41 42 43 44 45 46 47 48 49 50

376
ASUS43 KIND 090109
RWRIN

WEATHER ROUNDUP FOR INDIANA
NATIONAL WEATHER SERVICE INDIANAPOLIS IN
800 PM EST MON FEB 08 2016

NOTE: "FAIR" INDICATES FEW OR NO CLOUDS BELOW 12,000 FEET WITH NO
SIGNIFICANT WEATHER AND/OR OBSTRUCTIONS TO VISIBILITY.

* - STATION DOES NOT REPORT WEATHER SUCH AS PRECIPITATION OR FOG.

+ - STATION NOT QUALITY CONTROLLED BY THE NATIONAL WEATHER SERVICE.
    USE DATA WITH CAUTION...ESPECIALLY DEWPOINT AND RELATIVE
    HUMIDITY OBSERVATIONS.

INZ001>003-010>013-019-020-090200-
NORTHWEST INDIANA

CITY           SKY/WX    TMP DP  RH WIND       PRES   REMARKS
GARY /AIRPORT/ CLOUDY    30  19  64 W14       29.75R WCI  20
KNOX *+        CLOUDY    28  23  80 W12       29.72S WCI  18
LA PORTE +     CLOUDY    30  26  87 W10G17    29.72S WCI  21
MICHIGAN CITY+ FLURRIES  28  27  93 W6        29.73S WCI  22
MONTICELLO +   CLOUDY    25  17  71 W12G17    29.76R WCI  15
RENSSELAER +   CLOUDY    28  19  69 W12       29.76S WCI  18
VALPARAISO     CLOUDY    28  22  78 W12       29.73S WCI  18

$$

LMZ046-743>745-090200-
SOUTHERN LAKE MICHIGAN

STATION/POSITION TIME  TEMP    WIND        PRES    WAVE
                       AIR SEA DIR/SP/G            HT
                 (UTC) (F)     (DEG/KT/KT) (MB)    (FT)
BURNS HARBOR     0000   29     270/ 12/ 15 1007.5R
MICHIGAN CITY    0000   28     240/ 18/ 18   N/A

$$

INZ004-005-014>016-021>024-090200-
NORTH CENTRAL INDIANA

CITY           SKY/WX    TMP DP  RH WIND       PRES   REMARKS
ELKHART        FLURRIES  28  27  93 W9        29.70R WCI  20
GOSHEN         CLOUDY    29  25  85 W12       29.68S WCI  19
LOGANSPORT +   LGT SNOW  27  19  74 W10       29.75S WCI  17
PERU/GRISSOM   LGT SNOW  24  22  93 W14       29.71F FOG     WCI  12
ROCHESTER +    LGT SNOW  30  21  69 W10G16    29.72S WCI  21
SOUTH BEND     LGT SNOW  27  26  96 W7        29.70S FOG     WCI  19
WARSAW +       FLURRIES  28  25  86 W10       29.69S WCI  19

$$

INZ006>009-017-018-025>027-090200-
NORTHEAST INDIANA

CITY           SKY/WX    TMP DP  RH WIND       PRES   REMARKS
ANGOLA *+      CLOUDY    30  28  93 W9        29.64S WCI  22
AUBURN +       CLOUDY    32  27  80 W15G21    29.67S WCI  22
FORT WAYNE     LGT SNOW  29  27  92 W16       29.68S FOG     WCI  17
HUNTINGTON +   CLOUDY    26  21  81 W13G20    29.70S WCI  15

$$

INZ028-029-035-036-043>045-051>053-090200-
WEST CENTRAL INDIANA

CITY           SKY/WX    TMP DP  RH WIND       PRES   REMARKS
GREENCASTLE +  LGT SNOW  21  14  73 W8        29.81R WCI  12
LAFAYETTE      CLOUDY    23  18  81 W14       29.78S WCI  11
TERRE HAUTE    LGT SNOW  22  17  81 W10       29.85R WCI  11

$$

INZ030>032-037>040-046>048-054>057-064-065-090200-
CENTRAL INDIANA

CITY           SKY/WX    TMP DP  RH WIND       PRES   REMARKS
COLUMBUS       FLURRIES  25  19  80 NW13      29.80R WCI  13
FISHERS *+     CLOUDY    21  19  93 W12       29.77  WCI   9
FRANKFORT +    MOCLDY    24  15  70 W15       29.77S WCI  11
GREENWOOD *+   CLOUDY    25  21  86 W16       29.77R WCI  12
INDIANAPOLIS   FLURRIES  23  16  74 W15       29.77R WCI  10
-EAGLE CREEK   CLOUDY    23  18  81 W14       29.77R WCI  11
KOKOMO *+      CLOUDY    27  19  74 W15       29.73S WCI  15
MARION +       LGT SNOW  25  17  70 W16       29.73S WCI  12
MT COMFORT *+  CLOUDY    25  19  80 W17       29.76R WCI  11
SHELBYVILLE    FLURRIES  26  20  77 W17       29.76R WCI  13
ZIONSVILLE +   CLEAR     21  16  79 W16G22    29.76S WCI   7

$$

INZ033-034-041-042-049-050-058-059-090200-
EAST CENTRAL INDIANA

CITY           SKY/WX    TMP DP  RH WIND       PRES   REMARKS
MUNCIE         LGT SNOW  27  22  81 W14G23    29.71S WCI  16

$$

INZ060-061-067>069-081>083-085>088-090200-
SOUTHWEST INDIANA

CITY           SKY/WX    TMP DP  RH WIND       PRES   REMARKS
EVANSVILLE     LGT SNOW  25  18  74 W8G20     29.91R WCI  16
HUNTINGBURG *+ CLOUDY    23  18  80 NW13      29.88R WCI  11
WASHINGTON +   LGT SNOW  22  19  89 W14G20    29.87S WCI   9

$$

INZ062-063-066-070>080-084-089>092-090200-
SOUTH CENTRAL AND SOUTHEAST INDIANA

CITY           SKY/WX    TMP DP  RH WIND       PRES   REMARKS
BEDFORD +      LGT SNOW  23  21  93 W7        29.82  WCI  15
BLOOMINGTON    LGT SNOW  22  17  81 W9        29.80S WCI  12
MADISON *+     CLOUDY    28  25  86 NW10G18   29.80R WCI  19
NORTH VERNON + LGT SNOW  27  27 100 W14G22    29.78  WCI  15
SEYMOUR +      LGT SNOW  27  21  80 NW15      29.81R WCI  15

$$





USA.gov is the U.S. government's official web portal to all federal, state and local government web resources and services.